Time,TemperatureF,DewpointF,PressureIn,WindDirection,WindDirectionDegrees,WindSpeedMPH,WindSpeedGustMPH,Humidity,HourlyPrecipIn,Conditions,Clouds,dailyrainin,SoftwareType,DateUTC
2013-05-14 00:00:00,47.4,34.2,30.12,ESE,116,0.0,1.0,60,0.00,,CLR,0.00,VWS V14.00,2013-05-14 04:00:00,
2013-05-14 03:00:00,42.5,35.5,30.14,ESE,117,0.0,0.0,76,0.00,,CLR,0.00,VWS V14.00,2013-05-14 07:00:00,
2013-05-14 03:15:00,42.2,35.5,30.14,ESE,116,0.0,0.0,77,0.00,,CLR,0.00,VWS V14.00,2013-05-14 07:15:00,
2013-05-14 03:30:00,41.6,34.9,30.14,ESE,117,0.0,0.0,77,0.00,,CLR,0.00,VWS V14.00,2013-05-14 07:30:00,
2013-05-14 03:45:00,41.3,35.0,30.15,ESE,117,0.0,0.0,78,0.00,,CLR,0.00,VWS V14.00,2013-05-14 07:45:00,
2013-05-14 04:00:00,41.1,35.1,30.15,ESE,117,0.0,0.0,79,0.00,,CLR,0.00,VWS V14.00,2013-05-14 08:00:00,
2013-05-14 04:15:00,40.8,35.4,30.15,SE,124,0.0,0.0,81,0.00,,CLR,0.00,VWS V14.00,2013-05-14 08:15:00,
2013-05-14 04:30:00,40.6,35.5,30.15,ESE,117,0.0,0.0,82,0.00,,CLR,0.00,VWS V14.00,2013-05-14 08:30:00,
2013-05-14 04:45:00,40.5,35.8,30.16,ESE,119,0.0,0.0,83,0.00,,CLR,0.00,VWS V14.00,2013-05-14 08:45:00,
2013-05-14 05:00:00,40.5,36.0,30.16,ESE,117,0.0,0.0,84,0.00,,CLR,0.00,VWS V14.00,2013-05-14 09:00:00,
2013-05-14 05:15:00,40.3,35.9,30.16,ESE,117,0.0,0.0,84,0.00,,CLR,0.00,VWS V14.00,2013-05-14 09:15:00,
2013-05-14 05:30:00,40.2,36.1,30.17,ESE,117,0.0,0.0,85,0.00,,CLR,0.00,VWS V14.00,2013-05-14 09:30:00,
2013-05-14 05:45:00,40.2,36.3,30.18,ESE,117,0.0,0.0,86,0.00,,CLR,0.00,VWS V14.00,2013-05-14 09:45:00,
2013-05-14 06:00:00,40.3,36.5,30.19,ESE,117,0.0,0.0,86,0.00,,CLR,0.00,VWS V14.00,2013-05-14 10:00:00,
2013-05-14 06:15:00,41.2,37.6,30.19,ESE,116,0.0,0.0,87,0.00,,CLR,0.00,VWS V14.00,2013-05-14 10:15:00,
2013-05-14 06:30:00,43.8,39.6,30.19,ESE,116,0.0,0.0,85,0.00,,CLR,0.00,VWS V14.00,2013-05-14 10:30:00,
2013-05-14 06:45:00,47.9,40.7,30.18,ESE,117,0.0,0.0,76,0.00,,CLR,0.00,VWS V14.00,2013-05-14 10:45:00,
2013-05-14 07:00:00,51.1,40.9,30.18,ESE,116,0.0,0.0,68,0.00,,CLR,0.00,VWS V14.00,2013-05-14 11:00:00,
2013-05-14 07:15:00,54.1,39.2,30.18,ESE,123,0.0,0.0,57,0.00,,CLR,0.00,VWS V14.00,2013-05-14 11:15:00,
2013-05-14 07:30:00,55.3,38.5,30.18,ESE,114,0.0,1.0,53,0.00,,CLR,0.00,VWS V14.00,2013-05-14 11:30:00,
2013-05-14 07:45:00,56.0,37.6,30.18,ESE,114,0.0,3.0,50,0.00,,CLR,0.00,VWS V14.00,2013-05-14 11:45:00,
2013-05-14 08:00:00,56.9,36.9,30.18,ESE,116,0.0,3.0,47,0.00,,CLR,0.00,VWS V14.00,2013-05-14 12:00:00,
2013-05-14 08:15:00,58.4,38.8,30.18,SE,144,0.0,2.0,48,0.00,,CLR,0.00,VWS V14.00,2013-05-14 12:15:00,
2013-05-14 08:30:00,58.9,38.2,30.18,North,350,0.0,3.0,46,0.00,,CLR,0.00,VWS V14.00,2013-05-14 12:30:00,
2013-05-14 09:00:00,60.7,37.5,30.19,North,352,0.0,2.0,42,0.00,,CLR,0.00,VWS V14.00,2013-05-14 13:00:00,
2013-05-14 09:15:00,60.7,39.3,30.19,North,352,2.0,4.0,45,0.00,,CLR,0.00,VWS V14.00,2013-05-14 13:15:00,
2013-05-14 09:30:00,62.3,37.7,30.18,North,350,1.0,2.0,40,0.00,,CLR,0.00,VWS V14.00,2013-05-14 13:30:00,
2013-05-14 09:45:00,63.2,35.8,30.19,North,352,0.0,2.0,36,0.00,,CLR,0.00,VWS V14.00,2013-05-14 13:45:00,
2013-05-14 10:00:00,64.0,35.1,30.19,North,353,1.0,3.0,34,0.00,,CLR,0.00,VWS V14.00,2013-05-14 14:00:00,
2013-05-14 10:15:00,64.5,40.9,30.19,North,353,1.0,3.0,42,0.00,,CLR,0.00,VWS V14.00,2013-05-14 14:15:00,
2013-05-14 10:30:00,64.8,37.2,30.18,North,359,0.0,5.0,36,0.00,,CLR,0.00,VWS V14.00,2013-05-14 14:30:00,
2013-05-14 10:45:00,65.2,38.3,30.18,NNW,347,1.0,5.0,37,0.00,,CLR,0.00,VWS V14.00,2013-05-14 14:45:00,
2013-05-14 11:00:00,66.1,37.7,30.17,North,352,0.0,3.0,35,0.00,,CLR,0.00,VWS V14.00,2013-05-14 15:00:00,
2013-05-14 11:15:00,67.1,40.0,30.16,North,354,0.0,3.0,37,0.00,,CLR,0.00,VWS V14.00,2013-05-14 15:15:00,
2013-05-14 11:30:00,67.9,37.0,30.15,North,359,1.0,3.0,32,0.00,,CLR,0.00,VWS V14.00,2013-05-14 15:30:00,
2013-05-14 11:45:00,67.9,37.0,30.14,North,0,0.0,7.0,32,0.00,,CLR,0.00,VWS V14.00,2013-05-14 15:45:00,
2013-05-14 12:00:00,68.1,35.5,30.13,North,0,1.0,9.0,30,0.00,,CLR,0.00,VWS V14.00,2013-05-14 16:00:00,
2013-05-14 12:15:00,68.4,34.9,30.13,North,0,1.0,5.0,29,0.00,,CLR,0.00,VWS V14.00,2013-05-14 16:15:00,
2013-05-14 12:30:00,69.6,38.5,30.13,North,0,0.0,6.0,32,0.00,,CLR,0.00,VWS V14.00,2013-05-14 16:30:00,
2013-05-14 12:45:00,69.4,39.1,30.12,North,359,0.0,5.0,33,0.00,,CLR,0.00,VWS V14.00,2013-05-14 16:45:00,
2013-05-14 13:00:00,69.9,35.3,30.11,North,359,1.0,7.0,28,0.00,,CLR,0.00,VWS V14.00,2013-05-14 17:00:00,
2013-05-14 13:15:00,70.8,40.3,30.10,North,359,1.0,8.0,33,0.00,,CLR,0.00,VWS V14.00,2013-05-14 17:15:00,
2013-05-14 13:30:00,70.9,39.6,30.09,NW,311,0.0,5.0,32,0.00,,FEW070,0.00,VWS V14.00,2013-05-14 17:30:00,
2013-05-14 13:45:00,70.8,37.9,30.10,North,356,1.0,3.0,30,0.00,,FEW070,0.00,VWS V14.00,2013-05-14 17:45:00,
2013-05-14 14:00:00,70.9,38.0,30.08,North,359,0.0,8.0,30,0.00,,CLR,0.00,VWS V14.00,2013-05-14 18:00:00,
2013-05-14 14:15:00,71.3,37.4,30.08,North,0,0.0,6.0,29,0.00,,CLR,0.00,VWS V14.00,2013-05-14 18:15:00,
2013-05-14 14:30:00,70.8,40.3,30.07,North,359,4.0,6.0,33,0.00,,CLR,0.00,VWS V14.00,2013-05-14 18:30:00,
2013-05-14 14:45:00,70.9,38.8,30.05,North,357,0.0,5.0,31,0.00,,CLR,0.00,VWS V14.00,2013-05-14 18:45:00,
2013-05-14 15:00:00,70.8,37.9,30.05,North,0,2.0,5.0,30,0.00,,CLR,0.00,VWS V14.00,2013-05-14 19:00:00,
2013-05-14 15:15:00,71.3,37.4,30.04,North,357,2.0,7.0,29,0.00,,CLR,0.00,VWS V14.00,2013-05-14 19:15:00,
2013-05-14 15:30:00,71.1,39.0,30.04,NW,318,2.0,4.0,31,0.00,,CLR,0.00,VWS V14.00,2013-05-14 19:30:00,
2013-05-14 15:45:00,72.3,38.3,30.04,North,357,0.0,4.0,29,0.00,,CLR,0.00,VWS V14.00,2013-05-14 19:45:00,
2013-05-14 16:00:00,72.7,41.2,30.04,North,359,0.0,6.0,32,0.00,,SCT110,0.00,VWS V14.00,2013-05-14 20:00:00,
2013-05-14 16:15:00,73.7,40.4,30.04,North,0,0.0,5.0,30,0.00,,SCT110,0.00,VWS V14.00,2013-05-14 20:15:00,
2013-05-14 16:30:00,73.3,39.2,30.04,NNW,336,0.0,6.0,29,0.00,,SCT110,0.00,VWS V14.00,2013-05-14 20:30:00,
2013-05-14 16:45:00,73.2,39.9,30.04,NNW,333,1.0,4.0,30,0.00,,SCT110,0.00,VWS V14.00,2013-05-14 20:45:00,
2013-05-14 17:00:00,73.7,39.5,30.03,North,0,0.0,3.0,29,0.00,,FEW110,0.00,VWS V14.00,2013-05-14 21:00:00,
2013-05-14 17:15:00,72.7,42.0,30.03,NNW,336,0.0,3.0,33,0.00,,FEW110,0.00,VWS V14.00,2013-05-14 21:15:00,
2013-05-14 17:30:00,72.1,39.0,30.03,North,0,0.0,7.0,30,0.00,,FEW110,0.00,VWS V14.00,2013-05-14 21:30:00,
2013-05-14 17:45:00,70.8,42.5,30.01,North,0,2.0,4.0,36,0.00,,FEW110,0.00,VWS V14.00,2013-05-14 21:45:00,
2013-05-14 18:00:00,69.9,40.3,30.01,North,0,1.0,3.0,34,0.00,,FEW110,0.00,VWS V14.00,2013-05-14 22:00:00,
2013-05-14 18:15:00,68.9,40.2,29.99,North,357,2.0,6.0,35,0.00,,FEW110,0.00,VWS V14.00,2013-05-14 22:15:00,
2013-05-14 18:30:00,67.9,42.1,30.00,NNW,336,1.0,6.0,39,0.00,,FEW110,0.00,VWS V14.00,2013-05-14 22:30:00,
2013-05-14 18:45:00,66.8,42.4,30.00,NNW,337,0.0,2.0,41,0.00,,FEW110,0.00,VWS V14.00,2013-05-14 22:45:00,
2013-05-14 19:00:00,66.0,42.3,30.01,NNW,335,0.0,2.0,42,0.00,,CLR,0.00,VWS V14.00,2013-05-14 23:00:00,
2013-05-14 19:15:00,64.7,41.7,30.00,NNW,336,0.0,2.0,43,0.00,,CLR,0.00,VWS V14.00,2013-05-14 23:15:00,
2013-05-14 19:30:00,63.7,41.4,30.00,NNW,337,0.0,1.0,44,0.00,,CLR,0.00,VWS V14.00,2013-05-14 23:30:00,
2013-05-14 19:45:00,62.6,41.5,30.00,NNW,336,0.0,0.0,46,0.00,,CLR,0.00,VWS V14.00,2013-05-14 23:45:00,
2013-05-14 20:00:00,61.6,41.7,30.00,NNW,336,0.0,1.0,48,0.00,,CLR,0.00,VWS V14.00,2013-05-15 00:00:00,
2013-05-14 20:15:00,60.9,42.2,30.00,NNW,339,0.0,1.0,50,0.00,,CLR,0.00,VWS V14.00,2013-05-15 00:15:00,
2013-05-14 20:30:00,60.1,42.4,30.00,NNW,337,0.0,1.0,52,0.00,,CLR,0.00,VWS V14.00,2013-05-15 00:30:00,
2013-05-14 20:45:00,59.6,43.0,30.00,NNW,337,0.0,2.0,54,0.00,,CLR,0.00,VWS V14.00,2013-05-15 00:45:00,
2013-05-14 21:00:00,59.3,42.7,30.00,NNW,339,0.0,1.0,54,0.00,,FEW070,0.00,VWS V14.00,2013-05-15 01:00:00,
2013-05-14 21:15:00,59.2,42.6,30.00,NNW,339,0.0,1.0,54,0.00,,FEW070,0.00,VWS V14.00,2013-05-15 01:15:00,
2013-05-14 21:30:00,58.7,42.1,30.00,NNW,337,0.0,2.0,54,0.00,,FEW070,0.00,VWS V14.00,2013-05-15 01:30:00,
2013-05-14 22:00:00,58.1,43.0,30.00,NNW,336,0.0,1.0,57,0.00,,CLR,0.00,VWS V14.00,2013-05-15 02:00:00,
2013-05-14 22:15:00,57.8,43.6,29.99,NNW,336,0.0,2.0,59,0.00,,CLR,0.00,VWS V14.00,2013-05-15 02:15:00,
2013-05-14 22:30:00,57.3,43.1,29.98,NNW,336,0.0,1.0,59,0.00,,CLR,0.00,VWS V14.00,2013-05-15 02:30:00,
2013-05-14 22:45:00,57.2,43.5,29.98,NNW,337,0.0,1.0,60,0.00,,CLR,0.00,VWS V14.00,2013-05-15 02:45:00,
2013-05-14 22:47:00,58.6,43.4,30.00,NNW,336,0.0,2.0,57,0.00,,FEW070,0.00,VWS V14.00,2013-05-15 02:47:00,
2013-05-14 23:00:00,57.2,43.5,29.98,NNW,335,0.0,2.0,60,0.00,,CLR,0.00,VWS V14.00,2013-05-15 03:00:00,
2013-05-14 23:15:00,57.3,43.5,29.98,NNW,333,0.0,2.0,60,0.00,,CLR,0.00,VWS V14.00,2013-05-15 03:15:00,
2013-05-14 23:30:00,57.3,43.5,29.97,NNW,332,0.0,1.0,60,0.00,,CLR,0.00,VWS V14.00,2013-05-15 03:30:00,
2013-05-14 23:45:00,57.5,43.7,29.97,NNW,330,0.0,1.0,60,0.00,,CLR,0.00,VWS V14.00,2013-05-15 03:45:00,